Time,TemperatureF,DewpointF,PressureIn,WindDirection,WindDirectionDegrees,WindSpeedMPH,WindSpeedGustMPH,Humidity,HourlyPrecipIn,Conditions,Clouds,dailyrainin,SoftwareType,DateUTC
2013-10-09 00:14:00,59.0,52.0,30.17,NNW,333,6.0,10.0,78,0.00,,,0.00,,2013-10-09 04:14:00,
2013-10-09 00:24:00,59.0,52.0,30.17,North,11,4.0,10.0,79,0.00,,,0.00,,2013-10-09 04:24:00,
2013-10-09 00:44:00,59.0,52.0,30.16,NNE,19,6.0,10.0,79,0.00,,,0.00,,2013-10-09 04:44:00,
2013-10-09 00:54:00,59.0,52.0,30.16,NNW,338,7.0,11.0,79,0.00,,,0.00,,2013-10-09 04:54:00,
2013-10-09 01:13:00,59.0,53.0,30.15,NE,37,7.0,13.0,80,0.00,,,0.00,,2013-10-09 05:13:00,
2013-10-09 01:22:00,59.0,53.0,30.16,NE,44,3.0,9.0,80,0.00,,,0.00,,2013-10-09 05:22:00,
2013-10-09 01:42:00,59.0,53.0,30.15,NNE,27,5.0,9.0,80,0.00,,,0.00,,2013-10-09 05:42:00,
2013-10-09 01:52:00,59.0,54.0,30.15,NNE,13,4.0,10.0,82,0.00,,,0.00,,2013-10-09 05:52:00,
2013-10-09 02:12:00,59.0,54.0,30.15,NE,46,4.0,12.0,82,0.00,,,0.00,,2013-10-09 06:12:00,
2013-10-09 02:22:00,59.0,54.0,30.15,NNW,342,3.0,7.0,82,0.00,,,0.00,,2013-10-09 06:22:00,
2013-10-09 02:42:00,59.0,54.0,30.14,SW,222,6.0,10.0,82,0.00,,,0.00,,2013-10-09 06:42:00,
2013-10-09 02:52:00,59.0,54.0,30.14,North,350,6.0,14.0,82,0.00,,,0.00,,2013-10-09 06:52:00,
2013-10-09 03:12:00,59.0,54.0,30.14,North,356,5.0,10.0,82,0.00,,,0.00,,2013-10-09 07:12:00,
2013-10-09 03:22:00,59.0,54.0,30.13,NNE,20,5.0,13.0,82,0.00,,,0.00,,2013-10-09 07:22:00,
2013-10-09 03:42:00,59.0,54.0,30.12,NNW,329,7.0,12.0,82,0.00,,,0.00,,2013-10-09 07:42:00,
2013-10-09 03:52:00,59.0,54.0,30.13,NW,304,5.0,10.0,82,0.00,,,0.00,,2013-10-09 07:52:00,
2013-10-09 04:12:00,58.0,53.0,30.11,ENE,75,5.0,14.0,82,0.00,,,0.00,,2013-10-09 08:12:00,
2013-10-09 04:23:00,58.0,52.0,30.11,WNW,292,5.0,11.0,81,0.00,,,0.00,,2013-10-09 08:23:00,
2013-10-09 04:42:00,58.0,53.0,30.11,NE,43,4.0,6.0,82,0.00,,,0.00,,2013-10-09 08:42:00,
2013-10-09 04:53:00,58.0,52.0,30.11,North,9,6.0,10.0,81,0.00,,,0.00,,2013-10-09 08:53:00,
2013-10-09 05:11:00,57.0,51.0,30.11,NNE,23,4.0,13.0,81,0.00,,,0.00,,2013-10-09 09:11:00,
2013-10-09 05:22:00,57.0,52.0,30.12,NNW,342,4.0,6.0,82,0.00,,,0.00,,2013-10-09 09:22:00,
2013-10-09 05:43:00,57.0,52.0,30.13,NNE,31,3.0,7.0,82,0.00,,,0.00,,2013-10-09 09:43:00,
2013-10-09 05:53:00,57.0,52.0,30.13,NNE,15,5.0,9.0,82,0.00,,,0.00,,2013-10-09 09:53:00,
2013-10-09 06:13:00,58.0,53.0,30.13,NE,39,6.0,10.0,82,0.00,,,0.00,,2013-10-09 10:13:00,
2013-10-09 06:23:00,58.0,53.0,30.13,ENE,61,3.0,12.0,82,0.00,,,0.00,,2013-10-09 10:23:00,
2013-10-09 06:43:00,58.0,53.0,30.13,NE,44,5.0,8.0,82,0.00,,,0.00,,2013-10-09 10:43:00,
2013-10-09 06:53:00,58.0,53.0,30.13,NE,51,5.0,9.0,82,0.00,,,0.00,,2013-10-09 10:53:00,
2013-10-09 07:22:00,58.0,53.0,30.13,NE,49,6.0,12.0,82,0.00,,,0.00,,2013-10-09 11:22:00,
2013-10-09 07:42:00,58.0,53.0,30.13,NNW,335,5.0,10.0,82,0.00,,,0.00,,2013-10-09 11:42:00,
2013-10-09 07:52:00,58.0,53.0,30.13,North,11,5.0,11.0,82,0.00,,,0.00,,2013-10-09 11:52:00,
2013-10-09 08:12:00,58.0,53.0,30.13,NNE,23,7.0,10.0,82,0.00,,,0.00,,2013-10-09 12:12:00,
2013-10-09 08:22:00,58.0,53.0,30.14,NNW,346,3.0,10.0,83,0.00,,,0.00,,2013-10-09 12:22:00,
2013-10-09 08:42:00,58.0,53.0,30.14,NE,48,5.0,12.0,83,0.00,,,0.00,,2013-10-09 12:42:00,
2013-10-09 08:52:00,58.0,53.0,30.14,NNE,20,5.0,12.0,83,0.00,,,0.00,,2013-10-09 12:52:00,
2013-10-09 09:11:00,58.0,53.0,30.14,NNE,25,6.0,9.0,83,0.00,,,0.00,,2013-10-09 13:11:00,
2013-10-09 09:22:00,59.0,54.0,30.14,North,1,5.0,12.0,83,0.00,,,0.00,,2013-10-09 13:22:00,
2013-10-09 09:42:00,59.0,54.0,30.15,NNE,15,5.0,9.0,83,0.00,,,0.00,,2013-10-09 13:42:00,
2013-10-09 09:52:00,59.0,54.0,30.15,NNE,13,7.0,12.0,83,0.00,,,0.00,,2013-10-09 13:52:00,
2013-10-09 10:11:00,59.0,54.0,30.15,NNE,27,5.0,12.0,83,0.00,,,0.00,,2013-10-09 14:11:00,
2013-10-09 10:22:00,60.0,55.0,30.16,NNE,12,6.0,14.0,83,0.00,,,0.00,,2013-10-09 14:22:00,
2013-10-09 10:42:00,60.0,55.0,30.16,NW,319,4.0,10.0,83,0.00,,,0.00,,2013-10-09 14:42:00,
2013-10-09 10:52:00,60.0,55.0,30.16,NW,321,9.0,16.0,83,0.00,,,0.00,,2013-10-09 14:52:00,
2013-10-09 11:11:00,60.0,55.0,30.15,NNE,32,6.0,16.0,84,0.00,,,0.00,,2013-10-09 15:11:00,
2013-10-09 11:22:00,60.0,55.0,30.15,NNW,327,5.0,11.0,84,0.00,,,0.00,,2013-10-09 15:22:00,
2013-10-09 11:43:00,61.0,56.0,30.15,NE,37,6.0,11.0,83,0.00,,,0.00,,2013-10-09 15:43:00,
2013-10-09 11:53:00,61.0,56.0,30.15,NNE,27,6.0,14.0,84,0.00,,,0.00,,2013-10-09 15:53:00,
2013-10-09 12:13:00,61.0,56.0,30.16,North,8,7.0,12.0,84,0.00,,,0.00,,2013-10-09 16:13:00,
2013-10-09 12:24:00,61.0,56.0,30.15,NW,323,6.0,15.0,85,0.00,,,0.00,,2013-10-09 16:24:00,
2013-10-09 12:42:00,61.0,56.0,30.15,North,9,8.0,12.0,85,0.00,,,0.00,,2013-10-09 16:42:00,
2013-10-09 12:53:00,61.0,56.0,30.14,NE,37,9.0,17.0,85,0.00,,,0.00,,2013-10-09 16:53:00,
2013-10-09 13:12:00,61.0,56.0,30.14,North,6,7.0,12.0,85,0.00,,,0.00,,2013-10-09 17:12:00,
2013-10-09 13:22:00,61.0,56.0,30.14,NNE,19,5.0,14.0,85,0.00,,,0.00,,2013-10-09 17:22:00,
2013-10-09 13:42:00,61.0,56.0,30.14,NNE,18,7.0,13.0,84,0.00,,,0.00,,2013-10-09 17:42:00,
2013-10-09 13:52:00,61.0,56.0,30.13,NNE,19,8.0,15.0,84,0.00,,,0.00,,2013-10-09 17:52:00,
2013-10-09 14:12:00,61.0,56.0,30.13,North,1,5.0,14.0,85,0.00,,,0.00,,2013-10-09 18:12:00,
2013-10-09 14:22:00,62.0,57.0,30.12,NNE,19,7.0,11.0,84,0.00,,,0.00,,2013-10-09 18:22:00,
2013-10-09 14:42:00,62.0,57.0,30.12,NNE,15,6.0,16.0,84,0.00,,,0.00,,2013-10-09 18:42:00,
2013-10-09 14:52:00,62.0,57.0,30.12,NNE,33,6.0,13.0,83,0.00,,,0.00,,2013-10-09 18:52:00,
2013-10-09 15:11:00,62.0,57.0,30.12,NNE,30,8.0,13.0,83,0.00,,,0.00,,2013-10-09 19:11:00,
2013-10-09 15:22:00,62.0,57.0,30.11,NE,37,8.0,15.0,83,0.00,,,0.00,,2013-10-09 19:22:00,
2013-10-09 15:42:00,62.0,57.0,30.11,NNW,335,7.0,14.0,84,0.00,,,0.00,,2013-10-09 19:42:00,
2013-10-09 15:53:00,61.0,56.0,30.11,NNW,328,10.0,18.0,85,0.00,,,0.00,,2013-10-09 19:53:00,
2013-10-09 16:11:00,61.0,57.0,30.11,NW,307,4.0,15.0,86,0.00,,,0.00,,2013-10-09 20:11:00,
2013-10-09 16:22:00,61.0,57.0,30.11,NE,43,8.0,17.0,86,0.00,,,0.00,,2013-10-09 20:22:00,
2013-10-09 16:43:00,61.0,57.0,30.10,NW,326,9.0,16.0,87,0.00,,,0.00,,2013-10-09 20:43:00,
2013-10-09 16:52:00,60.0,56.0,30.10,NW,318,7.0,16.0,87,0.00,,,0.00,,2013-10-09 20:52:00,
2013-10-09 17:12:00,60.0,56.0,30.10,NE,41,8.0,17.0,87,0.00,,,0.00,,2013-10-09 21:12:00,
2013-10-09 17:23:00,60.0,56.0,30.10,NNW,338,4.0,13.0,87,0.00,,,0.00,,2013-10-09 21:23:00,
2013-10-09 17:44:00,60.0,56.0,30.10,NNW,347,3.0,11.0,87,0.00,,,0.00,,2013-10-09 21:44:00,
2013-10-09 17:54:00,60.0,56.0,30.10,NW,310,5.0,12.0,87,0.00,,,0.00,,2013-10-09 21:54:00,
2013-10-09 18:13:00,60.0,56.0,30.11,NNW,342,5.0,13.0,87,0.00,,,0.00,,2013-10-09 22:13:00,
2013-10-09 18:24:00,60.0,56.0,30.11,NNE,30,7.0,16.0,88,0.00,,,0.00,,2013-10-09 22:24:00,
2013-10-09 18:43:00,59.0,55.0,30.11,NE,44,6.0,11.0,88,0.00,,,0.00,,2013-10-09 22:43:00,
2013-10-09 18:53:00,59.0,55.0,30.10,NE,56,7.0,16.0,88,0.00,,,0.00,,2013-10-09 22:53:00,
2013-10-09 19:12:00,59.0,55.0,30.10,NNE,15,7.0,16.0,88,0.00,,,0.00,,2013-10-09 23:12:00,
2013-10-09 19:22:00,59.0,55.0,30.10,NE,46,7.0,16.0,88,0.00,,,0.00,,2013-10-09 23:22:00,
2013-10-09 19:53:00,57.0,55.0,30.10,NW,321,6.0,12.0,94,0.00,,,0.00,,2013-10-09 23:53:00,
2013-10-09 20:12:00,57.0,56.0,30.10,NNW,330,5.0,13.0,95,0.00,,,0.00,,2013-10-10 00:12:00,
2013-10-09 20:22:00,57.0,56.0,30.10,North,5,7.0,14.0,96,0.00,,,0.00,,2013-10-10 00:22:00,
2013-10-09 20:42:00,57.0,56.0,30.10,NNE,22,7.0,13.0,96,0.00,,,0.00,,2013-10-10 00:42:00,
2013-10-09 20:52:00,57.0,56.0,30.10,NNE,21,7.0,15.0,96,0.00,,,0.00,,2013-10-10 00:52:00,
2013-10-09 21:11:00,56.0,55.0,30.09,NE,53,5.0,15.0,96,0.00,,,0.00,,2013-10-10 01:11:00,
2013-10-09 21:22:00,56.0,55.0,30.09,North,354,5.0,15.0,97,0.00,,,0.00,,2013-10-10 01:22:00,
2013-10-09 21:42:00,56.0,55.0,30.09,NNE,22,4.0,14.0,97,0.00,,,0.00,,2013-10-10 01:42:00,
2013-10-09 21:52:00,56.0,55.0,30.09,NW,321,7.0,13.0,97,0.01,,,0.01,,2013-10-10 01:52:00,
2013-10-09 22:12:00,56.0,55.0,30.09,NE,43,5.0,16.0,97,0.01,,,0.01,,2013-10-10 02:12:00,
2013-10-09 22:22:00,55.0,54.0,30.09,WNW,295,9.0,18.0,97,0.01,,,0.01,,2013-10-10 02:22:00,
2013-10-09 23:12:00,55.0,54.0,30.08,NNE,15,7.0,13.0,97,0.00,,,0.01,,2013-10-10 03:12:00,
2013-10-09 23:22:00,55.0,54.0,30.08,NNE,18,6.0,14.0,97,0.00,,,0.01,,2013-10-10 03:22:00,
2013-10-09 23:44:00,55.0,54.0,30.07,North,352,7.0,14.0,97,0.00,,,0.01,,2013-10-10 03:44:00,
2013-10-09 23:55:00,55.0,54.0,30.07,NNW,338,7.0,14.0,97,0.00,,,0.01,,2013-10-10 03:55:00,